Weather Roundup
Issued by NWS Corpus Christi, TX

Home | Current Version | Previous Version | Text Only | Print | Product List | Glossary On
Versions: 1 2 3 4 5 6 7 8 9 10 11 12 13 14 15 16 17 18 19 20 21 22 23 24 25 26 27 28 29 30 31 32 33 34 35 36 37 38 39 40 41 42 43 44 45 46 47 48 49 50
000
ASUS44 KCRP 020310
HRRCRP

SOUTH TEXAS REGIONAL WEATHER ROUNDUP
NATIONAL WEATHER SERVICE CORPUS CHRISTI TX
1000 PM CDT SAT AUG 01 2015


TXZ229>244-020400-
...CORPUS CHRISTI AREA OBSERVATIONS...

CITY           SKY/WX    TMP DP  RH WIND       PRES   REMARKS
CORPUS CHRISTI MOCLDY    82  73  74 SE8       29.90R
NAS CORPUS CHR PTCLDY    82  75  79 SE10      29.90R
ROCKPORT       PTCLDY    85  75  72 SE12      29.90R HX  93
KINGSVILLE NAS PTCLDY    81  75  82 SE3       29.90R
ALICE          PTCLDY    80  69  69 SE6       29.90R
FALFURRIAS     MOCLDY    82  67  61 E3        29.90R
$$

...VICTORIA AREA OBSERVATIONS...

CITY           SKY/WX    TMP DP  RH WIND       PRES   REMARKS
VICTORIA       PTCLDY    82  72  71 S3        29.92R
BEEVILLE       FAIR      80  72  77 SE5       29.92R
PLEASANTON     CLEAR     86  57  36 NE3       29.92R
SAN ANTONIO    PTCLDY    86  58  38 E7        29.94R
$$

...LAREDO AREA OBSERVATIONS...

CITY           SKY/WX    TMP DP  RH WIND       PRES   REMARKS
LAREDO         CLEAR     89  64  43 E9        29.92R HX  90
COTULLA        PTCLDY    90  65  43 SE7       29.90R HX  92
DEL RIO        CLEAR     84  75  74 CALM      29.90R HX  92
MCALLEN        CLEAR     85  72  65 SE9       29.92R HX  91
HEBBRONVILLE     N/A     82  64  53 SE3       29.93R
$$

...OTHER TEXAS OBSERVATIONS...

CITY           SKY/WX    TMP DP  RH WIND       PRES   REMARKS
BROWNSVILLE    MOCLDY    79  74  84 S6        29.92R
HOUSTON        PTCLDY    80  64  58 SE6       29.91R
COL. STATION   CLEAR     86  59  39 E6        29.93R
AUSTIN         PTCLDY    80  63  55 VRB5      29.92S
WACO           PTCLDY    85  60  42 E5        29.93S
FORT WORTH     PTCLDY    87  58  37 SE8       29.94R
WICHITA FALLS  CLOUDY    80  72  76 CALM      29.97R
LUBBOCK        LGT RAIN  72  62  71 S17       30.05F
EL PASO        PTCLDY    87  55  33 SE13      30.01R
$$

...MARINE OBSERVATIONS...

STATION/POSITION TIME  SKY/WX   TEMP    WIND        PRES    VSBY  WAVE   SWELL
                                AIR SEA DIR/SP/G                  HT/PER HT/PER
                 (UTC)          (F)     (DEG/KT/KT) (MB)    (MI)  (FT/S) (FT/S)
PORT ARANSAS     0300            84 83   90/ 11/ 12 1013.5R
BUOY 90 E PORT A 0250            86 87   80/ 10/ 12 1012.5R         2/ 4   2/ 5
BUOY 45 SE BAFFI 0250            85 86   80/  8/ 10 1012.3R         1/ 3
BUOY 200 E PT IS 0250            83 85  230/  8/ 10 1013.1R         1/ 9
BUOY 15 E GALVES 0250            87 87  130/  6/  6 1012.1S         1/ 5   2/ 5
$$



USA.gov is the U.S. government's official web portal to all federal, state and local government web resources and services.